ISS (ZARYA) 1 25544U 98067A 26107.16713328 .00006923 00000+0 13461-3 0 9994 2 25544 51.6328 242.0950 0006547 316.4598 43.5873 15.48795320562295 POISK 1 36086U 09060A 26107.16713328 .00006923 00000+0 13461-3 0 9992 2 36086 51.6328 242.0950 0006547 316.4598 43.5873 15.48795320561499 CSS (TIANHE) 1 48274U 21035A 26107.08714428 .00018048 00000+0 20046-3 0 9991 2 48274 41.4683 334.1955 0005957 223.9530 136.0836 15.62466268283616 ISS (NAUKA) 1 49044U 21066A 26107.16713328 .00006923 00000+0 13461-3 0 9990 2 49044 51.6328 242.0950 0006547 316.4598 43.5873 15.48795320561532 FREGAT DEB 1 49271U 11037PF 26106.94833867 .00000626 00000+0 10818-2 0 9991 2 49271 51.6404 185.8561 0946440 147.1243 219.2287 12.40991344217444 CSS (WENTIAN) 1 53239U 22085A 26107.08714428 .00018048 00000+0 20046-3 0 9994 2 53239 41.4683 334.1955 0005957 223.9530 136.0836 15.62466268283130 CSS (MENGTIAN) 1 54216U 22143A 26107.08714428 .00018048 00000+0 20046-3 0 9995 2 54216 41.4683 334.1955 0005957 223.9530 136.0836 15.62466268284159 TIANZHOU-9 1 64786U 25149A 26107.08714428 .00018048 00000+0 20046-3 0 9997 2 64786 41.4683 334.1955 0005957 223.9530 136.0836 15.62466268284152 PROGRESS-MS 32 1 65586U 25204A 26107.16713328 .00006923 00000+0 13461-3 0 9997 2 65586 51.6328 242.0950 0006547 316.4598 43.5873 15.48795320554500 YOTSUBA-KULOVER 1 65941U 98067XN 26106.72901255 .06739310 12393-4 74116-3 0 9994 2 65941 51.6034 215.6287 0009819 317.4833 42.5431 16.36262631 29571 BOTAN 1 65943U 98067XQ 26106.53125553 .01732649 11841-4 91974-3 0 9995 2 65943 51.6114 217.3644 0012556 327.0996 32.9239 16.19082533 29534 HRC MONOBLOCK CAMERA 1 66052U 98067XR 26106.83795935 .00039233 00000+0 37310-3 0 9999 2 66052 51.6267 232.3847 0004116 291.9705 68.0853 15.66435427 28364 HTV-X1 1 66174U 25241A 26106.73280671 .00005028 00000+0 16847-3 0 9990 2 66174 51.6355 249.6151 0007554 320.0869 39.9556 15.32663502 26770 SZ-21 MODULE 1 66515U 25246C 26106.98276874 .00027231 00000+0 20776-3 0 9997 2 66515 41.4743 327.0917 0004492 281.8589 78.1750 15.71565858 24091 SHENZHOU-22 1 66645U 25272A 26107.08714428 .00018048 00000+0 20046-3 0 9990 2 66645 41.4683 334.1955 0005957 223.9530 136.0836 15.62466268284158 SOYUZ-MS 28 1 66664U 25275A 26107.16713328 .00006923 00000+0 13461-3 0 9993 2 66664 51.6328 242.0950 0006547 316.4598 43.5873 15.48795320561775 DUPLEX 1 66906U 98067XS 26106.63515160 .00018768 00000+0 24552-3 0 9999 2 66906 51.6286 239.2925 0003971 300.3644 59.6956 15.58653454 21042 ISS OBJECT XT 1 66907U 98067XT 26107.04173734 .00262301 00000+0 94940-3 0 9995 2 66907 51.6203 227.6712 0010891 321.6416 38.3813 15.87244428 21235 ISS OBJECT XU 1 66908U 98067XU 26106.59257611 .00268364 00000+0 95752-3 0 9999 2 66908 51.6204 229.9191 0010658 318.8419 41.1781 15.87523968 21162 SILVERSAT 1 66909U 98067XV 26106.56755711 .00764812 28915-3 12799-2 0 9998 2 66909 51.6139 227.4458 0014274 326.0751 33.9346 16.02081806 21194 ISS OBJECT XW 1 66910U 98067XW 26106.57295227 .00197109 00000+0 85893-3 0 9998 2 66910 51.6192 230.5385 0009967 314.5361 45.4827 15.83585755 21159 ISS OBJECT XY 1 66912U 98067XY 26106.63517949 .00083369 00000+0 62010-3 0 9993 2 66912 51.6239 234.0144 0006809 310.1757 49.8644 15.72063795 21101 KNACKSAT-2 1 67683U 98067XZ 26107.06795005 .00028926 00000+0 42787-3 0 9995 2 67683 51.6300 240.6850 0011678 330.7097 29.3238 15.54987080 10751 CORAL 1 67684U 98067YA 26106.74352069 .00061558 00000+0 71344-3 0 9998 2 67684 51.6281 240.7657 0015211 321.9707 38.0212 15.61076474 10723 GXIBA-1 1 67685U 98067YB 26106.66443088 .00030658 00000+0 44077-3 0 9992 2 67685 51.6298 242.4910 0013527 326.2315 33.7814 15.55704875 10696 UITMSAT-2 1 67686U 98067YC 26106.63530131 .00036095 00000+0 49191-3 0 9999 2 67686 51.6298 242.2975 0010433 304.9832 55.0179 15.57108041 10692 HMU-SAT2 1 67687U 98067YD 26106.67281269 .00028627 00000+0 41769-3 0 9994 2 67687 51.6307 242.5514 0009794 306.9962 53.0132 15.55389987 10617 LEOPARD 1 67688U 98067YE 26106.64858254 .00033379 00000+0 46655-3 0 9995 2 67688 51.6302 242.3879 0010039 305.5314 54.4741 15.56470184 10617 CREW DRAGON 12 1 67796U 26031A 26107.16713328 .00006923 00000+0 13461-3 0 9991 2 67796 51.6328 242.0950 0006547 316.4598 43.5873 15.48795320562346 PROGRESS-MS 33 1 68319U 26058A 26107.16713328 .00006923 00000+0 13461-3 0 9992 2 68319 51.6328 242.0950 0006547 316.4598 43.5873 15.48795320 3168 CYGNUS NG-24 1 68689U 26079A 26107.16713328 .00006923 00000+0 13461-3 0 9995 2 68689 51.6328 242.0950 0006547 316.4598 43.5873 15.48795320 828